Vertical_Velocity
-0 -1 -1 0 -1 0 -0 -0 -1 -2 -1 -0 -1 -0 -1 -1 -1 -0 -1 -1 -1 0 -0 -0 -0 -1 -0 0 1 -0 0 -0 1 -0 -0 0 -1 -1 -1 -2 -1 0 -1
-1 -1 -0 -0 -1 0 -1 -1 -1 -0 -0 0 -0 -1 0 -1 0 -1 -2 -1 -0 -1 -1 -1 -1 -1 -2 -2 -1 0 -0 -0 -0 0 0 -0 -1 -0 -0 -0 -2 -1 -1
-1 -2 0 -0 -1 -1 -1 -2 -2 -1 -1 -0 -1 -1 0 -2 -1 -2 -2 -1 -1 -0 -0 0 0 1 0 -0 -0 -1 -2 -0 0 1 0 1 0 -0 1 -0 -1 -0 -0
0 -0 1 -1 0 -1 -1 -1 -2 -1 -2 -2 -2 -1 -1 -1 -1 -1 -1 -1 -1 -1 -1 -1 -1 -0 -0 -0 -0 -1 -2 0 -0 1 0 0 1 -1 -1 -1 0 0 1
-1 1 1 -2 -1 -1 -0 -1 -1 -1 -1 -1 -2 -1 -1 -1 -1 -2 -2 -2 -2 -2 -1 -1 -0 -1 -0 -0 0 1 -0 -1 0 -0 -1 -1 0 1 1 1 -0 -1 -1
-1 -1 0 -1 -0 -0 -1 -1 -1 -1 -1 -2 -1 -1 -1 -0 -1 -1 -1 -0 -0 -1 -1 -1 -1 0 1 1 -0 -0 -1 -3 -1 0 1 -0 -1 -1 -1 0 1 1 0
-1 -2 0 -1 -1 -2 -1 -1 -2 0 0 -1 -1 -1 -1 -1 -1 -1 -1 -1 -1 -1 -1 -1 -1 -2 -2 -1 1 0 0 -0 -2 -2 -1 -0 -0 -0 -1 -1 -0 -2 -1
-1 -0 0 -1 1 -1 0 -2 -1 -2 -0 -1 -1 -1 -1 0 0 -0 -0 -1 0 -1 0 -1 -1 -1 -1 -2 -1 0 -0 1 -1 -2 -2 -1 -2 -2 -1 -1 -1 -1 -1
0 1 1 -1 -1 -0 -1 -1 -1 -2 -3 -1 -1 -2 -2 -1 -1 -1 -1 -1 -1 -0 -0 0 -0 -0 0 -1 -1 1 1 -0 2 2 -0 -1 -1 -1 -1 -2 -1 -0 -0
-1 -1 -1 0 -1 -2 -1 -4 -2 -2 -2 -2 -1 -1 -2 -2 -1 -1 -1 0 0 -1 0 -0 1 0 1 -1 -2 -1 -1 -1 0 -1 -1 1 0 -0 -1 2 1 -0 -1
-2 -1 1 0 -0 -0 -1 -2 -2 -0 -1 -2 -1 -1 -0 -1 -1 -1 -1 -1 -0 -0 0 -1 -1 -0 1 0 -0 0 1 -1 2 0 -0 -1 0 1 1 -1 0 0 1
0 0 -0 -0 0 -0 -0 -1 -2 -2 -1 -1 -1 -1 -1 -1 -0 -0 -1 -0 -1 -2 -2 -2 -2 -1 0 2 -0 -0 1 -1 1 0 1 1 0 -0 0 -1 2 -0 1
1 0 -1 -0 -1 -0 -1 -1 -2 -1 -1 -1 -1 -0 -0 -0 -0 -0 -1 -1 -0 -0 -1 -1 -2 -1 -3 -2 -1 -0 0 1 -0 -0 3 -1 1 1 0 0 -1 -0 0
-1 -1 -0 -0 -2 -1 -1 -1 -0 0 -1 -1 -1 -1 -1 0 0 -1 -1 -2 -1 1 -1 -0 -2 -2 -2 -1 0 0 0 -0 1 1 1 -1 -1 3 0 0 0 4 0
-1 -2 0 -1 -2 -2 -2 -2 -1 0 -0 -0 -1 1 1 1 -0 -1 -1 -1 -1 -1 -0 -1 0 0 -1 -1 -2 -1 -1 -1 -0 -1 2 -1 -2 -2 3 1 0 0 1
-1 -1 -2 -3 -2 -2 -2 -1 -1 -0 -1 -1 -1 -1 0 1 1 1 -1 -2 -1 -1 -0 -1 -1 1 1 -1 -1 -4 0 -1 -1 -0 1 2 0 -1 -1 2 2 1 1
-2 -0 -3 -3 -4 -2 -2 -2 -2 -1 -1 -1 -1 -1 -1 1 1 1 -0 -1 -0 -2 -1 1 1 1 1 -2 1 0 -1 0 1 -1 -1 5 3 -0 -0 -1 2 2 3
-0 -3 -3 -4 -2 -1 -1 -1 0 -0 -1 -1 -1 -1 -1 -0 0 0 -1 -1 -1 -2 -1 -0 0 -4 -1 3 1 -0 4 0 -1 -2 -1 -2 0 2 -0 -1 -1 -1 1
-3 -3 -3 -2 -0 -1 -1 -2 -2 -1 -1 -1 -1 -1 -2 -1 -1 -1 0 -1 -0 -2 -1 -0 -2 -1 -2 -1 3 2 -2 0 -0 1 -1 -3 -4 -3 -0 2 -1 0 1
-3 -3 -2 -2 -0 -1 -1 -2 -2 -2 -1 1 -0 -1 -2 -4 -3 -1 -2 -2 -2 -1 0 1 -4 -4 2 1 -1 -1 0 -3 -1 -4 -1 -2 0 -1 -4 -1 3 -1 -2
-3 -4 -2 0 1 -1 0 -0 -1 -1 -2 -2 -2 0 -2 -1 -1 -1 -2 -1 -2 -2 0 1 -1 -2 -2 0 2 1 -0 5 -1 -2 -3 -3 -4 -7 -4 2 6 8 5
-3 -1 -1 -2 -2 -1 -1 -2 -1 -1 -3 -2 -3 -1 -1 -1 -0 -1 -1 -2 -2 -2 -1 1 -3 -4 -5 -0 1 4 6 -8 -3 2 -3 -3 5 -4 -5 -5 -2 -0 2
-3 -0 -3 -3 -2 -3 -2 -2 -2 -1 -3 -2 -1 1 -2 -2 -1 -1 -2 -1 -2 -1 -1 -0 2 -1 -4 -4 0 -1 3 9 24 -15 -15 -2 -3 -7 -2 1 2 -0 -0
-3 -3 1 -0 1 0 -1 -2 -3 -2 -1 -1 0 0 -0 -1 -1 -1 -1 0 -1 -1 -1 1 1 -1 -3 -5 -5 -2 0 2 1 33 -12 -0 -13 -4 0 -3 -2 3 -0
-2 -2 -0 -2 -2 -2 -3 -2 -1 -2 0 -2 -0 -2 0 -0 -1 -0 0 1 -0 -2 1 -1 -0 0 -1 -0 -1 -5 -7 -6 -2 -4 10 -4 -11 -5 -5 1 -1 -2 6
-1 -2 -2 -2 -4 -1 -2 -1 -1 -1 1 0 0 0 1 1 1 0 1 0 -0 1 -1 -0 -0 -1 0 0 1 1 -0 -6 -6 -1 1 -5 0 -5 -4 -5 -3 -5 -3
Height
5882 5882 5882 5882 5883 5883 5883 5883 5883 5884 5883 5883 5882 5882 5882 5882 5881 5880 5879 5879 5878 5877 5877 5877 5877 5876 5876 5875 5875 5874 5873 5872 5872 5871 5870 5870 5869 5869 5868 5868 5867 5868 5868
5882 5882 5883 5883 5883 5883 5884 5884 5884 5884 5884 5883 5883 5882 5882 5881 5880 5880 5879 5878 5877 5877 5876 5876 5876 5875 5874 5874 5873 5873 5872 5871 5871 5870 5869 5868 5867 5867 5867 5866 5865 5865 5865
5883 5883 5883 5883 5883 5884 5885 5884 5884 5884 5884 5883 5882 5882 5881 5881 5880 5879 5879 5878 5877 5877 5876 5875 5874 5873 5872 5872 5871 5871 5870 5870 5869 5868 5868 5866 5865 5864 5865 5864 5863 5862 5863
5884 5884 5884 5883 5884 5884 5884 5885 5885 5885 5884 5883 5882 5881 5881 5880 5879 5878 5878 5877 5876 5875 5875 5874 5873 5872 5871 5870 5869 5868 5868 5867 5866 5866 5865 5864 5864 5863 5861 5862 5861 5861 5860
5884 5884 5884 5884 5883 5884 5884 5884 5884 5883 5884 5883 5882 5881 5880 5879 5878 5877 5876 5875 5874 5873 5872 5871 5870 5870 5869 5868 5867 5865 5864 5863 5863 5862 5862 5861 5860 5860 5859 5858 5858 5857 5857
5883 5884 5884 5883 5883 5883 5883 5883 5882 5882 5881 5881 5880 5880 5878 5877 5876 5876 5874 5873 5872 5871 5869 5868 5867 5866 5865 5865 5864 5863 5862 5860 5858 5858 5858 5857 5856 5856 5855 5855 5854 5854 5853
5882 5883 5882 5882 5882 5882 5883 5882 5881 5880 5880 5879 5878 5877 5876 5875 5874 5872 5871 5870 5869 5868 5867 5865 5864 5863 5862 5861 5860 5859 5858 5857 5856 5854 5853 5853 5852 5851 5850 5850 5850 5849 5849
5880 5881 5881 5881 5881 5881 5881 5881 5880 5879 5877 5876 5875 5874 5872 5871 5870 5868 5867 5866 5864 5863 5862 5861 5860 5858 5857 5856 5856 5855 5854 5852 5851 5850 5849 5849 5848 5846 5846 5845 5845 5844 5843
5878 5879 5879 5878 5878 5878 5879 5878 5877 5876 5875 5873 5872 5870 5869 5868 5866 5865 5863 5862 5861 5859 5858 5857 5855 5854 5853 5852 5851 5850 5849 5847 5846 5845 5844 5843 5842 5841 5841 5840 5840 5839 5838
5876 5877 5876 5876 5876 5875 5875 5875 5873 5872 5871 5870 5868 5867 5866 5865 5863 5862 5860 5859 5858 5856 5855 5853 5852 5851 5850 5848 5847 5846 5844 5843 5841 5840 5838 5837 5837 5835 5834 5833 5833 5833 5833
5875 5875 5874 5874 5874 5873 5872 5871 5870 5869 5868 5866 5865 5864 5863 5861 5860 5858 5857 5855 5854 5852 5851 5849 5848 5847 5845 5844 5842 5840 5839 5838 5837 5835 5833 5832 5830 5830 5828 5827 5826 5826 5826
5872 5872 5872 5872 5871 5870 5869 5868 5867 5865 5864 5863 5862 5861 5859 5858 5856 5854 5853 5851 5850 5848 5846 5845 5843 5841 5839 5838 5836 5834 5833 5831 5830 5828 5827 5825 5824 5823 5822 5821 5820 5819 5819
5869 5870 5869 5869 5868 5866 5865 5864 5863 5862 5860 5859 5858 5856 5855 5853 5851 5850 5848 5846 5844 5842 5840 5838 5837 5835 5833 5831 5830 5828 5826 5824 5822 5821 5819 5818 5817 5815 5814 5813 5813 5813 5812
5866 5866 5866 5865 5864 5862 5861 5860 5858 5857 5855 5854 5853 5852 5850 5848 5846 5844 5842 5840 5838 5836 5834 5832 5830 5827 5825 5823 5821 5819 5818 5815 5814 5812 5810 5808 5807 5806 5805 5804 5804 5804 5804
5862 5862 5861 5860 5859 5857 5856 5855 5854 5852 5851 5849 5848 5846 5845 5842 5840 5838 5836 5833 5831 5828 5827 5824 5822 5819 5817 5814 5811 5810 5808 5806 5804 5802 5800 5798 5797 5795 5795 5794 5794 5794 5794
5858 5857 5856 5854 5853 5852 5850 5849 5849 5848 5846 5844 5843 5841 5839 5836 5833 5830 5828 5825 5823 5820 5818 5815 5813 5810 5807 5805 5802 5800 5797 5795 5793 5791 5789 5788 5786 5784 5783 5782 5782 5781 5782
5853 5852 5850 5848 5847 5845 5844 5843 5843 5842 5840 5839 5837 5835 5832 5829 5826 5823 5820 5817 5814 5812 5809 5806 5803 5800 5798 5795 5793 5789 5787 5784 5783 5781 5778 5777 5775 5774 5772 5770 5769 5769 5769
5849 5847 5845 5843 5840 5838 5838 5837 5837 5836 5834 5832 5830 5827 5824 5821 5818 5815 5812 5809 5805 5802 5800 5797 5794 5791 5788 5785 5783 5780 5778 5775 5772 5771 5769 5768 5766 5764 5761 5759 5757 5756 5756
5843 5841 5838 5836 5834 5833 5833 5832 5831 5829 5827 5825 5822 5819 5816 5813 5809 5805 5802 5799 5796 5794 5791 5788 5785 5782 5778 5776 5772 5770 5768 5767 5766 5764 5761 5758 5756 5753 5750 5746 5743 5742 5742
5836 5834 5832 5830 5829 5828 5827 5826 5824 5822 5820 5817 5814 5810 5807 5803 5799 5796 5793 5790 5787 5785 5782 5779 5775 5772 5769 5766 5764 5763 5761 5759 5757 5755 5753 5750 5747 5742 5737 5731 5725 5723 5724
5829 5827 5826 5825 5824 5823 5821 5819 5816 5813 5810 5807 5804 5800 5797 5793 5790 5787 5784 5782 5779 5776 5772 5768 5765 5763 5762 5762 5759 5756 5753 5751 5749 5747 5744 5741 5735 5728 5718 5709 5704 5702 5701
5821 5820 5819 5818 5817 5816 5813 5811 5808 5805 5801 5797 5793 5790 5786 5784 5782 5779 5776 5773 5770 5767 5763 5761 5759 5758 5757 5756 5754 5750 5747 5744 5740 5738 5735 5730 5722 5712 5698 5690 5685 5682 5682
5814 5812 5811 5810 5809 5807 5804 5802 5798 5795 5791 5787 5783 5781 5777 5774 5772 5769 5767 5764 5761 5758 5757 5756 5754 5752 5750 5749 5747 5745 5743 5740 5735 5729 5725 5718 5710 5699 5682 5676 5670 5665 5663
5807 5805 5803 5802 5800 5797 5794 5791 5787 5783 5780 5776 5773 5771 5769 5766 5764 5761 5758 5755 5753 5752 5752 5751 5749 5747 5744 5742 5740 5738 5736 5733 5730 5726 5716 5708 5701 5689 5671 5664 5654 5648 5646
5799 5798 5795 5793 5790 5786 5783 5779 5775 5772 5770 5766 5764 5762 5759 5757 5755 5752 5750 5749 5748 5747 5746 5745 5743 5741 5739 5737 5734 5732 5729 5725 5721 5717 5711 5701 5692 5680 5664 5653 5640 5632 5628
5790 5788 5785 5782 5779 5775 5772 5769 5766 5762 5759 5756 5754 5753 5751 5749 5747 5745 5744 5743 5743 5742 5741 5740 5738 5735 5733 5731 5729 5727 5725 5720 5714 5709 5703 5696 5686 5674 5658 5644 5630 5620 5619